Regional Weather Roundup
Issued by NWS

Home | Current Version | Previous Version | Graphics & Text | Print | Product List | Glossary On
Versions: 1 2 3 4 5 6 7 8 9 10 11 12 13 14 15 16 17 18 19 20 21 22 23 24 25 26 27 28 29 30 31 32 33 34 35 36 37 38 39 40 41 42 43 44 45 46 47 48 49 50
000
ASUS43 KDTX 160601
RWRMI
MICHIGAN HOURLY REGIONAL WEATHER ROUNDUP
NATIONAL WEATHER SERVICE DETROIT/PONTIAC MI
100 AM EST SAT DEC 16 2017

NOTE: "FAIR" INDICATES FEW OR NO CLOUDS BELOW 12,000 FEET WITH NO
SIGNIFICANT WEATHER AND/OR OBSTRUCTION TO VISIBILITY.

MIZ047>049-052>055-059>063-066>070-074>076-081>083-160700-
SOUTHEAST LOWER MICHIGAN

CITY           SKY/WX    TMP DP  RH WIND       PRES   REMARKS
ALMA           CLOUDY    22  18  85 SW3       29.87R
6HR MIN TEMP:  16; 6HR MAX TEMP:  23;

ANN ARBOR      CLOUDY    28  22  78 SW9       29.88F WCI  19
BAD AXE        CLOUDY    19  13  76 W8        29.85S WCI   9
6HR MIN TEMP:  14; 6HR MAX TEMP:  20;

CARO           CLOUDY    20  17  86 SW3       29.86S
DETROIT CITY   LGT SNOW  25  22  88 SW6       29.90F FOG     WCI  18
6HR MIN TEMP:  25; 6HR MAX TEMP:  26; 6HR PCP: TRACE;

DETROIT        FLURRIES  29  22  75 SW8       29.90F WCI  21
6HR MIN TEMP:  28; 6HR MAX TEMP:  29; 6HR PCP: TRACE;

FLINT          FLURRIES  23  18  81 SW5       29.87F WCI  17
6HR MIN TEMP:  19; 6HR MAX TEMP:  23; 6HR PCP:  0.01;

GROSSE ILE     CLOUDY    30  22  70 W10G17    29.90S WCI  21
6HR MIN TEMP:  26; 6HR MAX TEMP:  30;

HILLSDALE      FLURRIES  28  23  80 SW9G16    29.87F WCI  20
HOWELL         LGT SNOW  24  22  95 CALM      29.86F
6HR MIN TEMP:  20; 6HR MAX TEMP:  24;


CITY           SKY/WX    TMP DP  RH WIND       PRES   REMARKS
JACKSON        LGT SNOW  29  23  78 SW15      29.87S WCI  18
6HR MIN TEMP:  25; 6HR MAX TEMP:  29; 6HR PCP: TRACE;

LAMBERTVILLE   CLOUDY    30  22  72 SW10G21   29.92S WCI  21
6HR MIN TEMP:  26; 6HR MAX TEMP:  31;

LANSING        LGT SNOW  25  23  92 CALM      29.86F FOG
6HR MIN TEMP:  23; 6HR MAX TEMP:  25; 6HR PCP:  0.01;

LAPEER         FLURRIES  23  17  78 SW6       29.86F WCI  16
6HR MIN TEMP:  20; 6HR MAX TEMP:  24;

MASON          LGT SNOW  29  24  84 SW6       29.86S WCI  23
6HR MIN TEMP:  22; 6HR MAX TEMP:  29;

MONROE         CLOUDY    29  20  69 SW17G23   29.90S WCI  17
6HR MIN TEMP:  26; 6HR MAX TEMP:  30;

MT. CLEMENS    FLURRIES  25  23  93 SW5       29.88F WCI  19
6HR MIN TEMP:  24; 6HR MAX TEMP:  26; 6HR PCP: TRACE;

PONTIAC        LGT SNOW  23  21  92 CALM      29.86F FOG
6HR MIN TEMP:  21; 6HR MAX TEMP:  24; 6HR PCP: TRACE;

PORT HOPE        N/A     19  11  70 SW7       29.81F WCI  10
6HR MIN TEMP:  18; 6HR MAX TEMP:  24;

PORT HURON     CLOUDY    25  16  68 SW3       29.89F
TRI CITIES     CLOUDY    21  17  84 SW6       29.88R WCI  13
6HR MIN TEMP:  18; 6HR MAX TEMP:  23; 6HR PCP: TRACE;

MIDLAND        CLOUDY    20  17  88 S5        29.86S WCI  13
6HR MIN TEMP:  16; 6HR MAX TEMP:  24;

TROY           LGT SNOW  26  22  88 CALM      29.90F
SAGINAW HB     CLOUDY    21  18  86 SW5       29.87S WCI  15
$$
MIZ043>046-050>051-056>058-064>065-071>073-077>080-160700-
SOUTHWEST LOWER MICHIGAN

CITY           SKY/WX    TMP DP  RH WIND       PRES   REMARKS
BATTLE CREEK   FLURRIES  29  26  89 SW14      29.86F WCI  18
6HR MIN TEMP:  26; 6HR MAX TEMP:  29; 6HR PCP:  0.02;

BENTON HARBOR  CLOUDY    35  25  66 SW8       29.87F WCI  29
6HR MIN TEMP:  33; 6HR MAX TEMP:  36; 6HR PCP: TRACE;

BIG RAPIDS     CLOUDY    17  15  90 CALM      29.83S
6HR MIN TEMP:  13; 6HR MAX TEMP:  20;

COLDWATER      FLURRIES  30  24  81 SW8G16    29.89F WCI  22
6HR MIN TEMP:  27; 6HR MAX TEMP:  30;

HOLLAND        LGT SNOW  34  31  88 W16G24    29.85F FOG     WCI  24
6HR MIN TEMP:  32; 6HR MAX TEMP:  35; 6HR PCP:  0.01;

GRAND RAPIDS   LGT SNOW  25  23  92 E3        29.85S VSB 1
6HR MIN TEMP:  22; 6HR MAX TEMP:  26; 6HR PCP:  0.04;

IONIA          LGT SNOW  24  22  93 CALM      29.85S
6HR MIN TEMP:  20; 6HR MAX TEMP:  25;

KALAMAZOO      LGT SNOW  29  26  89 SW9       29.87F FOG     WCI  20
6HR MIN TEMP:  27; 6HR MAX TEMP:  30; 6HR PCP:  0.01;

LUDINGTON      FLURRIES  25  17  72 CALM      29.84S
6HR MIN TEMP:  23; 6HR MAX TEMP:  26;

MARSHALL       FLURRIES  28  26  92 SW13      29.87S WCI  17
6HR MIN TEMP:  25; 6HR MAX TEMP:  28;

MOUNT PLEASANT CLOUDY    21  19  90 CALM      29.84S
6HR MIN TEMP:  16; 6HR MAX TEMP:  23;

MUSKEGON       LGT SNOW  32  29  88 NW5       29.85F FOG     WCI  27
6HR MIN TEMP:  29; 6HR MAX TEMP:  32; 6HR PCP:  0.04;

SOUTH HAVEN    CLOUDY    37  28  70 SW13G18   29.86F WCI  28
$$
MIZ016>042-160700-
NORTHERN LOWER MICHIGAN

CITY           SKY/WX    TMP DP  RH WIND       PRES   REMARKS
ALPENA         CLOUDY    20  16  84 W6        29.80R WCI  12
6HR MIN TEMP:  20; 6HR MAX TEMP:  23; 6HR PCP: TRACE;

BEAVER ISLAND  MOCLDY    20  12  71 NW6       29.83S WCI  12
6HR MIN TEMP:  20; 6HR MAX TEMP:  23;

BELLAIRE       CLOUDY    24  17  73 W3        29.82F
6HR MIN TEMP:  23; 6HR MAX TEMP:  24;

CADILLAC       CLOUDY    15  13  90 SW3       29.79S
CHARLEVOIX     CLOUDY    23  15  70 NW14      29.84S WCI  11
6HR MIN TEMP:  23; 6HR MAX TEMP:  25;

FRANKFORT      CLOUDY    24  15  68 NW3       29.84S
GAYLORD        LGT SNOW  19  14  81 W5        29.76R WCI  12
6HR MIN TEMP:  19; 6HR MAX TEMP:  19; 6HR PCP:  0.03;

GRAYLING       PTCLDY    16  11  81 W6        29.79S WCI   8
6HR MIN TEMP:  16; 6HR MAX TEMP:  19;

HARBOR SPRINGS CLOUDY    20  13  75 NW3       29.81R
HOUGHTON LAKE  CLOUDY    17  13  84 SW6       29.81R WCI   9
6HR MIN TEMP:  16; 6HR MAX TEMP:  18;

MANISTEE       CLOUDY    23  14  68 NW5       29.84S WCI  17
OSCODA         MOCLDY    14   9  80 W12       29.82S WCI   0
6HR MIN TEMP:  12; 6HR MAX TEMP:  22;

PELLSTON       FLURRIES  19  13  77 NW9       29.82R WCI   8
6HR MIN TEMP:  19; 6HR MAX TEMP:  23; 6HR PCP: TRACE;

ROGERS CITY    CLOUDY    19  14  81 W7        29.81R WCI  10
TRAVERSE CITY  CLOUDY    21  14  74 SW5       29.83S WCI  15
6HR MIN TEMP:  21; 6HR MAX TEMP:  23; 6HR PCP: TRACE;

$$
MIZ007>008-015-160700-
EASTERN UPPER MICHIGAN

CITY           SKY/WX    TMP DP  RH WIND       PRES   REMARKS
KINROSS        LGT SNOW  12   9  87 N9        29.81R FOG     WCI   0
6HR MIN TEMP:  12; 6HR MAX TEMP:  17;

MACKINAC ISLAN CLOUDY    18  12  77 NW7       29.81R WCI   9
6HR MIN TEMP:  18; 6HR MAX TEMP:  23;

NEWBERRY       CLOUDY    13  11  92 N3        29.81R
6HR MIN TEMP:  12; 6HR MAX TEMP:  16;

S. S. MARIE    MOCLDY    10   2  69 N8        29.81R WCI  -2
6HR MIN TEMP:  10; 6HR MAX TEMP:  22; 6HR PCP: TRACE;

MUNISING         N/A     15  12  88 W7        29.83R WCI   5
6HR MIN TEMP:  14; 6HR MAX TEMP:  20; 6HR PCP:  0.11;

$$
MIZ004>006-011>014-085-160700-
CENTRAL UPPER MICHIGAN

CITY           SKY/WX    TMP DP  RH WIND       PRES   REMARKS
MANISTIQUE     CLEAR      7   2  80 NW7       29.83S WCI  -5
6HR MIN TEMP:   7; 6HR MAX TEMP:  15;

ESCANABA       CLOUDY    11   5  77 W5        29.85S WCI   3
6HR MIN TEMP:   8; 6HR MAX TEMP:  12;

MENOMINEE      CLOUDY    12   6  77 CALM      29.86F
6HR MIN TEMP:   9; 6HR MAX TEMP:  13;

$$
MIZ001>003-009>011-084-160700-
WESTERN UPPER MICHIGAN

CITY           SKY/WX    TMP DP  RH WIND       PRES   REMARKS
IRON MOUNTAIN  CLOUDY     8   3  80 CALM      29.79F
6HR MIN TEMP:   7; 6HR MAX TEMP:  14;

HOUGHTON       LGT SNOW  13   7  77 CALM      29.79S
6HR MIN TEMP:   9; 6HR MAX TEMP:  13; 6HR PCP:  0.01;

COPPER HARBOR    N/A     16  10  77 CALM      29.82S
6HR MIN TEMP:  16; 6HR MAX TEMP:  19;

IRONWOOD       CLOUDY     8   6  92 E3        29.78F
6HR MIN TEMP:  -2; 6HR MAX TEMP:   8;

$$

ABBREVIATIONS USED IN REMARKS
   TC - TEMPERATURE IN CELSIUS
  WCI - WIND CHILL INDEX
   HX - HEAT INDEX
  VSB - VISIBILITY




USA.gov is the U.S. government's official web portal to all federal, state and local government web resources and services.